Stations météo

réclame
Mon MeteoGroup
Hyeres, France (7667): Température de l'air & dewpoint: 13.06.2019 07:00:00 - 19.06.2019 07:00:00 (CEST)Hyeres, France (7667): Température de l'air 5cm: 13.06.2019 07:00:00 - 19.06.2019 07:00:00 (CEST)Hyeres, France (7667): Vitesse du vent & gusts: 13.06.2019 07:00:00 - 19.06.2019 07:00:00 (CEST)Hyeres, France (7667): Direction du vent: 13.06.2019 07:00:00 - 19.06.2019 07:00:00 (CEST)Hyeres, France (7667): reduced air pressure: 13.06.2019 07:00:00 - 19.06.2019 07:00:00 (CEST)Hyeres, France (7667): visibility: 13.06.2019 07:00:00 - 19.06.2019 07:00:00 (CEST)Hyeres, France (7667): Quantités de précipitations: 13.06.2019 07:00:00 - 19.06.2019 07:00:00 (CEST)
Date & Time tt [°C] td [°C] tt 5cm [°C] ff [km/h] ff [knt] fx [km/h] fx [knt] dd ppp [hPa] vv [km] rr [mm]
19.06.2019 07:00:00 15,2 10,6 9,3 0 0 9 5 N 1014,3 45 0,0
19.06.2019 06:00:00 13,3 9,2 8,4 4 2 11 6 NNE 1014,2 48 0,0
19.06.2019 05:00:00 13,8 9,4 9,5 9 5 11 6 NNW 1014,2 20 0,0
19.06.2019 04:00:00 14,2 10,0 8,6 4 2 7 4 NNE 1013,8 48 0,0
19.06.2019 03:00:00 15,3 10,5 10,0 2 1 6 4 N 1014,0 47 0,0
19.06.2019 02:00:00 16,9 10,5 10,7 3 2 12 6 N 1014,2 52 0,0
19.06.2019 01:00:00 19,7 11,2 12,8 10 5 16 9 NW 1014,7 56 0,0
19.06.2019 00:00:00 18,8 11,4 12,2 4 2 8 5 NNW 1015,1 58 0,0
18.06.2019 23:00:00 20,2 11,4 13,4 2 1 4 2 ENE 1014,9 60 0,0
18.06.2019 22:00:00 22,7 11,1 17,3 0 0 13 7 N 1014,8 52 0,0
18.06.2019 21:00:00 23,9 12,5 21,0 11 6 21 11 SSW 1014,5 60 0,0
18.06.2019 20:00:00 24,0 15,8 25,6 14 8 23 13 SSW 1014,6 57 0,0
18.06.2019 19:00:00 24,4 16,6 28,3 17 9 30 16 SSW 1014,5 52 0,0
18.06.2019 18:00:00 24,4 16,4 27,7 18 10 31 17 SW 1014,6 55 0,0
18.06.2019 17:00:00 25,1 14,5 25,8 18 10 30 16 SSW 1014,9 60 0,0
18.06.2019 16:00:00 25,3 16,4 30,4 22 12 33 18 SW 1015,5 19 0,0
18.06.2019 15:00:00 25,2 16,1 29,2 25 13 36 20 SW 1015,8 20 0,0
18.06.2019 14:00:00 26,4 13,8 34,3 18 10 28 15 SSW 1015,8 20 0,0
18.06.2019 13:00:00 25,3 15,9 31,6 18 10 29 16 SW 1016,0 28 0,0
18.06.2019 12:00:00 25,0 16,4 31,7 17 9 23 12 SSW 1015,9 30 0,0
18.06.2019 11:00:00 24,1 17,8 28,6 15 8 23 12 SSW 1015,8 30 0,0
18.06.2019 10:00:00 24,1 16,1 30,1 8 5 15 8 S 1015,6 13 0,0
18.06.2019 09:00:00 23,4 16,0 26,0 6 3 10 6 S 1015,7 20 0,0
18.06.2019 08:00:00 20,3 13,7 16,0 0 0 10 5 N 1015,3 19 0,0
18.06.2019 07:00:00 16,0 12,7 10,6 8 5 11 6 NNE 1014,9 29 0,0
18.06.2019 06:00:00 14,1 11,6 10,4 6 3 8 4 NNE 1014,9 18 0,0
18.06.2019 05:00:00 15,5 13,0 10,9 3 2 8 4 NNE 1014,6 20 0,0
18.06.2019 04:00:00 17,6 14,7 11,0 7 4 20 11 WNW 1014,8 19 0,0
18.06.2019 03:00:00 16,2 13,9 10,1 2 1 5 3 N 1015,0 9 0,0
18.06.2019 02:00:00 16,0 14,4 11,8 3 2 9 5 NNE 1015,1 10 0,0
18.06.2019 01:00:00 18,3 16,6 11,0 3 2 9 5 NNW 1015,8 8 0,0
18.06.2019 00:00:00 17,6 14,5 12,2 3 1 8 4 N 1015,6 14 0,0
17.06.2019 23:00:00 19,1 16,1 13,8 2 1 16 8 N 1015,6 15 0,0
17.06.2019 22:00:00 20,5 18,4 17,7 13 7 18 10 SW 1015,4 12 0,0
17.06.2019 21:00:00 21,5 17,9 19,4 9 5 17 9 SSW 1015,0 20 0,0
17.06.2019 20:00:00 22,5 16,3 24,5 11 6 14 8 S 1014,9 21 0,0
17.06.2019 19:00:00 23,5 17,7 28,6 9 5 18 10 SSW 1014,7 20 0,0
17.06.2019 18:00:00 23,6 17,8 30,2 13 7 25 14 S 1015,0 20 0,0
17.06.2019 17:00:00 23,5 18,2 30,6 14 8 26 14 SSW 1015,3 19 0,0
17.06.2019 16:00:00 23,6 18,0 32,1 16 9 23 13 SW 1015,8 24 0,0
17.06.2019 15:00:00 24,9 17,6 32,8 11 6 23 12 SE 1016,1 19 0,0
17.06.2019 14:00:00 23,7 18,3 31,3 16 9 31 17 SE 1016,1 19 0,0
17.06.2019 13:00:00 23,9 16,9 31,3 17 9 27 15 ESE 1015,8 20 0,0
17.06.2019 12:00:00 23,9 17,4 30,5 12 6 25 14 ESE 1016,0 20 0,0
17.06.2019 11:00:00 22,7 17,8 29,0 14 8 25 13 ESE 1016,4 20 0,0
17.06.2019 10:00:00 22,6 17,5 28,0 12 7 21 11 ESE 1016,2 20 0,0
17.06.2019 09:00:00 22,7 17,2 25,9 5 3 10 5 SE 1016,0 16 0,0
17.06.2019 08:00:00 20,6 16,4 17,0 3 1 9 5 NNW 1015,5 18 0,0
17.06.2019 07:00:00 16,2 14,6 11,6 4 2 7 4 NE 1015,3 14 0,0
17.06.2019 06:00:00 16,2 15,1 10,8 5 3 9 5 NNE 1015,0 15 0,2
17.06.2019 05:00:00 15,8 14,7 10,3 7 4 9 5 N 1014,9 10 0,0
17.06.2019 04:00:00 15,2 13,7 10,5 5 3 9 5 NNE 1014,8 10 0,0
17.06.2019 03:00:00 15,7 14,4 12,1 6 3 9 5 NNE 1014,5 15 0,0
17.06.2019 02:00:00 16,1 14,6 11,1 5 3 7 4 NNE 1014,5 14 0,0
17.06.2019 01:00:00 17,0 15,2 10,8 4 2 7 4 N 1014,9 20 0,0
17.06.2019 00:00:00 17,2 14,8 11,5 6 4 9 5 NNE 1015,1 26 0,0
16.06.2019 23:00:00 18,8 16,2 12,7 4 2 5 3 NNE 1015,3 32 0,0
16.06.2019 22:00:00 19,7 17,3 14,3 4 2 5 3 NE 1015,0 32 0,0
16.06.2019 21:00:00 21,5 16,2 18,4 3 2 10 5 ENE 1015,0 42 0,0
16.06.2019 20:00:00 23,0 15,6 25,7 6 3 14 8 SE 1015,0 47 0,0
16.06.2019 19:00:00 24,3 14,7 28,7 11 6 19 10 SE 1015,1 20 0,0
16.06.2019 18:00:00 24,4 15,6 30,8 11 6 21 11 SSW 1015,3 50 0,0
16.06.2019 17:00:00 25,2 14,6 31,8 13 7 22 12 SE 1015,5 20 0,0
16.06.2019 16:00:00 24,5 16,0 31,9 16 9 23 12 SE 1015,8 20 0,0
16.06.2019 15:00:00 24,8 16,0 33,7 12 6 21 12 SE 1016,0 20 0,0
16.06.2019 14:00:00 24,0 15,5 32,7 12 6 22 12 S 1016,1 20 0,0
16.06.2019 13:00:00 23,8 15,8 32,9 12 6 23 12 SSE 1016,3 20 0,0
16.06.2019 12:00:00 23,4 16,4 30,9 14 8 25 14 SSE 1016,4 20 0,0
16.06.2019 11:00:00 22,6 15,9 29,8 15 8 26 14 SE 1016,4 20 0,0
16.06.2019 10:00:00 25,4 11,9 30,5 3 2 16 9 NE 1015,9 57 0,0
16.06.2019 09:00:00 23,3 11,7 27,2 9 5 13 7 NNE 1016,0 60 0,0
16.06.2019 08:00:00 21,6 11,9 18,4 4 2 20 11 N 1015,7 60 0,0
16.06.2019 07:00:00 18,4 12,6 9,7 12 6 21 11 NNW 1015,2 60 0,0
16.06.2019 06:00:00 15,7 12,8 8,6 9 5 13 7 NW 1015,0 45 0,0
16.06.2019 05:00:00 15,9 13,9 9,1 5 3 14 8 NW 1014,9 18 0,0
16.06.2019 04:00:00 17,4 15,0 9,6 11 6 16 8 NW 1015,3 23 0,0
16.06.2019 03:00:00 17,2 15,5 10,5 7 4 12 6 NW 1015,5 19 0,0
16.06.2019 02:00:00 16,8 15,0 11,4 5 3 9 5 N 1015,9 13 0,0
16.06.2019 01:00:00 17,9 16,1 11,5 5 3 8 4 WSW 1015,9 18 0,0
16.06.2019 00:00:00 17,9 16,1 12,1 4 2 7 4 NNE 1016,1 13 0,0
15.06.2019 23:00:00 18,5 15,9 13,6 0 0 6 3 N 1015,8 14 0,0
15.06.2019 22:00:00 20,1 16,9 16,9 2 1 17 9 ESE 1015,5 23 0,0
15.06.2019 21:00:00 20,1 17,9 18,4 13 7 35 19 SSW 1015,3 20 0,0
15.06.2019 20:00:00 21,0 17,6 21,8 16 8 34 18 SW 1015,2 20 0,0
15.06.2019 19:00:00 21,8 17,2 25,0 23 13 35 19 SW 1015,1 35 0,0
15.06.2019 18:00:00 21,8 17,8 26,5 26 14 34 18 SW 1015,5 18 0,0
15.06.2019 17:00:00 22,3 17,4 28,1 19 10 30 16 SW 1016,0 18 0,0
15.06.2019 16:00:00 23,2 17,6 30,1 19 10 29 15 SW 1016,3 19 0,0
15.06.2019 15:00:00 22,5 17,2 31,6 17 9 27 15 SSW 1016,6 19 0,0
15.06.2019 14:00:00 22,9 16,9 31,6 16 9 28 15 SSW 1017,0 20 0,0
15.06.2019 13:00:00 22,1 17,0 28,7 14 8 24 13 SW 1017,2 19 0,0
15.06.2019 12:00:00 22,6 17,3 25,7 11 6 21 11 SSW 1017,2 19 0,0
15.06.2019 11:00:00 21,0 16,4 25,0 6 4 16 9 S 1017,1 18 0,0
15.06.2019 10:00:00 20,6 16,6 21,9 7 4 16 8 SW 1016,6 17 0,0
15.06.2019 09:00:00 19,5 17,3 19,0 8 4 13 7 SW 1016,4 13 0,0
15.06.2019 08:00:00 18,8 17,6 17,2 5 3 10 6 SW 1016,1 6 0,0
15.06.2019 07:00:00 18,3 17,8 11,8 3 1 6 3 SW 1015,6 6 0,0
15.06.2019 06:00:00 17,4 16,4 11,5 3 1 4 2 SW 1015,1 6 0,0
15.06.2019 05:00:00 17,7 16,9 12,1 3 2 8 4 NE 1015,1 3,2 0,0
15.06.2019 04:00:00 18,6 17,6 15,7 3 1 10 6 NNW 1014,8 8 0,0
15.06.2019 03:00:00 19,0 18,2 17,3 5 3 16 8 WNW 1014,8 5 0,0
15.06.2019 02:00:00 19,1 18,3 17,6 8 5 12 6 SW 1014,7 1,0 0,0
15.06.2019 01:00:00 19,4 18,2 17,7 5 3 15 8 S 1014,7 4,7 0,0
15.06.2019 00:00:00 19,4 18,6 17,7 8 5 22 12 ESE 1014,3 3,7 0,0
14.06.2019 23:00:00 19,7 18,7 17,9 14 7 28 15 ESE 1013,8 2,8 0,0
14.06.2019 22:00:00 20,5 18,8 18,9 19 10 34 19 ESE 1012,9 6 0,0
14.06.2019 21:00:00 20,8 18,9 18,9 20 11 34 18 SE 1011,9 6 0,0
14.06.2019 20:00:00 21,1 18,7 20,3 15 8 24 13 E 1011,6 8 0,0
14.06.2019 19:00:00 22,8 17,5 24,5 14 8 44 24 E 1010,5 16 0,0
14.06.2019 18:00:00 24,7 16,1 26,9 24 13 51 28 E 1010,1 17 0,0
14.06.2019 17:00:00 24,9 15,8 24,6 27 15 58 32 E 1009,9 19 0,0
14.06.2019 16:00:00 25,7 13,5 24,2 31 17 61 33 E 1009,6 20 0,0
14.06.2019 15:00:00 26,1 13,2 26,2 34 18 67 36 E 1009,7 20 0,0
14.06.2019 14:00:00 27,7 10,8 27,4 42 23 70 38 E 1009,9 20 0,0
14.06.2019 13:00:00 28,6 11,2 28,2 40 22 71 38 E 1009,7 20 0,0
14.06.2019 12:00:00 28,7 12,2 28,3 44 24 71 38 E 1010,3 18 0,0
14.06.2019 11:00:00 28,6 11,2 30,0 38 21 62 33 E 1010,5 20 0,0
14.06.2019 10:00:00 27,7 12,9 24,5 25 13 44 24 ENE 1011,3 43 0,0
14.06.2019 09:00:00 26,0 11,4 24,4 13 7 57 31 N 1012,7 57 0,0
14.06.2019 08:00:00 26,7 10,8 22,6 26 14 49 26 ENE 1010,7 51 0,0
14.06.2019 07:00:00 24,3 11,9 19,8 8 4 35 19 ENE 1011,3 55 0,0
14.06.2019 06:00:00 23,2 11,3 19,3 15 8 30 16 ENE 1011,4 60 0,0
14.06.2019 05:00:00 22,4 9,2 16,5 15 8 24 13 NE 1012,4 60 0,0
14.06.2019 04:00:00 18,8 7,9 15,2 10 6 16 9 N 1013,5 60 0,0
14.06.2019 03:00:00 19,1 6,9 13,2 9 5 15 8 N 1014,3 60 0,0
14.06.2019 02:00:00 18,6 5,4 14,5 6 3 16 8 NW 1014,5 60 0,0
14.06.2019 01:00:00 20,3 6,2 15,6 10 5 26 14 N 1014,2 60 0,0
14.06.2019 00:00:00 18,6 6,4 15,7 9 5 14 8 N 1015,6 60 0,0
13.06.2019 23:00:00 19,0 5,8 16,0 11 6 19 10 NNE 1015,2 60 0,0
13.06.2019 22:00:00 19,3 7,7 15,8 11 6 19 10 NE 1014,8 60 0,0
13.06.2019 21:00:00 19,7 12,0 17,0 7 4 24 13 ENE 1015,0 60 0,0
13.06.2019 20:00:00 20,3 14,2 19,3 15 8 24 13 E 1015,1 60 0,0
13.06.2019 19:00:00 20,7 13,6 20,8 13 7 26 14 ESE 1015,4 52 0,0
13.06.2019 18:00:00 20,7 13,6 21,8 12 7 22 12 ESE 1015,3 50 0,0
13.06.2019 17:00:00 22,4 12,1 29,1 10 6 22 12 SSE 1016,2 56 0,0
13.06.2019 16:00:00 22,3 11,4 32,2 13 7 23 12 SE 1016,3 20 0,0
13.06.2019 15:00:00 22,5 10,9 31,8 9 5 20 11 SSE 1016,4 20 0,0
13.06.2019 14:00:00 22,9 12,5 30,3 13 7 24 13 SE 1016,5 54 0,0
13.06.2019 13:00:00 22,5 9,6 31,4 13 7 21 12 SE 1016,1 60 0,0
13.06.2019 12:00:00 21,9 10,1 30,0 8 5 19 10 SE 1016,3 19 0,0
13.06.2019 11:00:00 21,2 11,2 29,1 11 6 18 10 SE 1016,7 56 0,0
13.06.2019 10:00:00 21,4 9,3 28,7 9 5 13 7 ESE 1016,2 20 0,0
13.06.2019 09:00:00 20,5 8,8 23,0 0 0 6 4 N 1015,9 55 0,0
13.06.2019 08:00:00 17,0 9,7 14,3 3 2 9 5 WNW 1015,6 55 0,0
13.06.2019 07:00:00 12,0 8,7 2,5 3 2 8 4 NW 1015,4 60 0,0

tt = Température de l'air
td = dewpoint
tt 5cm = Température de l'air 5cm
ff = Vitesse du vent
fx = gusts
dd = Direction du vent
ppp = reduced air pressure
vv = visibility
rr = Quantités de précipitations

stations d'obs. à proximité